www.pogodaiklimat.ru
Время
(UTC), дата
10 11.01
11 11.01
12 11.01
13 11.01
14 11.01
15 11.01
16 11.01
17 11.01
18 11.01
19 11.01
20 11.01
21 11.01
22 11.01
23 11.01
00 12.01
01 12.01
02 12.01
03 12.01
04 12.01
05 12.01
06 12.01
07 12.01
08 12.01
09 12.01
10 12.01
11 12.01
12 12.01
13 12.01
14 12.01
15 12.01
16 12.01
17 12.01
18 12.01
19 12.01
20 12.01
21 12.01
22 12.01
23 12.01
00 13.01
01 13.01
02 13.01
03 13.01
04 13.01
05 13.01
06 13.01
07 13.01
08 13.01
09 13.01
10 13.01
11 13.01
12 13.01
13 13.01
14 13.01
15 13.01
16 13.01
17 13.01
18 13.01
19 13.01
20 13.01
21 13.01
22 13.01
23 13.01
00 14.01
01 14.01
02 14.01
03 14.01
04 14.01
05 14.01
06 14.01
07 14.01
08 14.01
09 14.01
10 14.01
11 14.01
12 14.01
13 14.01
14 14.01
15 14.01
16 14.01
17 14.01
18 14.01
19 14.01
20 14.01
21 14.01
22 14.01
23 14.01
00 15.01
01 15.01
02 15.01
03 15.01
04 15.01
05 15.01
06 15.01
07 15.01
08 15.01
09 15.01
10 15.01
11 15.01
12 15.01
13 15.01
14 15.01
15 15.01
16 15.01
17 15.01
18 15.01
19 15.01
20 15.01
21 15.01
22 15.01
23 15.01
00 16.01
01 16.01
02 16.01
03 16.01
04 16.01
05 16.01
06 16.01
07 16.01
08 16.01
09 16.01
10 16.01
11 16.01
12 16.01
13 16.01
14 16.01
15 16.01
16 16.01
17 16.01
18 16.01
19 16.01
20 16.01
21 16.01
22 16.01
23 16.01
00 17.01
01 17.01
02 17.01
03 17.01
04 17.01
05 17.01
06 17.01
07 17.01
08 17.01
09 17.01
10 17.01
11 17.01
12 17.01
13 17.01
14 17.01
15 17.01
16 17.01
17 17.01
18 17.01
19 17.01
20 17.01
21 17.01
22 17.01
23 17.01
00 18.01
01 18.01
02 18.01
03 18.01
04 18.01
05 18.01
06 18.01
07 18.01
08 18.01
09 18.01
Ветер
(напр.,м/с)
Видим. Явления Облачность Т
(С)
Тd
(С)
f
(%)
Тe
(С)
Тes
(С)
Комфортность P
(гПа)
Po
(гПа)
Тmin
(С)
Tmax
(С)
R
(мм)
R24
(мм)
S
(см)
С 2-3
{3}
12 км 9/9 480 м
[Sc]
-2.3 -5.6 78 -6 -6 прохладно 1025.7 995.3
С 2-3
{3}
14 км 10/9 480 м
[Sc]
-2.3 -5.8 77 -5 -5 по сезону 1025.7 995.3
СЗ 2-3
{3}
14 км 6/6 450 м
[Sc]
-2.1 -5.6 77 -5 -4 холодно 1025.0 994.6
С 2-3
{3}
14 км 4/4 450 м
[Sc]
-1.8 -5.5 76 -5 -3 прохладно 1024.4 994.1
СВ 2-4
{4}
12 км 4/4 450 м
[Sc]
-1.9 -5.6 76 -6 -5 по сезону 1024.5 994.1
С 2-3
{4}
12 км ясно -1.9 -5.4 77 -6 -5 очень
холодно
1024.9 994.5
СВ 2-3
{4}
10 км 3/3 900 м
[Sc]
-2.5 -5.3 81 -6 -6 прохладно 1025.2 994.8
СВ 1-1
{2}
9000 м 4/4 700 м
[Sc]
-3.3 -5.6 84 -6 -6 по сезону 1025.6 995.1 0.0
С 1
{3}
8000 м 4/4 600 м
[Sc]
-3.3 -5.2 87 -6 -6 холодно 1026.3 995.7 -3.4 -1.7 0.0
З 1-1
{2}
8000 м 9/9 660 м
[Sc]
-3.2 -5.1 87 -4 -4 по сезону 1026.6 996.0
З 1-2
{2}
7000 м ясно -3.9 -5.4 89 -5 -5 по сезону 1026.6 996.0
З 1-1
{1}
6000 м ясно -4.1 -5.4 91 -5 -5 холодно 1026.6 995.9
СЗ 1-1
{1}
5000 м дымка ясно -4.9 -6.3 90 -6 -6 прохладно 1027.3 996.5
С 1-1
{1}
4800 м дымка 1/1 930 м
[Sc]
-4.9 -5.9 93 -6 -6 по сезону 1027.5 996.7
ЮВ 1-2
{2}
4800 м дымка 9/9 870 м
[Sc]
-3.7 -4.8 92 -6 -6 холодно 1027.3 996.7
ЮВ 1-2
{2}
4800 м дымка 10/10 870 м
[Sc]
-3.2 -4.5 91 -6 -6 по сезону 1027.3 996.7
Ю 1 4800 м дымка 10/10 540 м
[Sc]
-3.2 -4.6 90 -4 -4 по сезону 1027.6 997.0
ЮВ 1
{5}
3200 м дымка 10/10 700 м
[Sc]
-3.0 -4.4 90 -5 -5 прохладно 1027.3 996.7
ЮВ 2 3200 м дымка 10/10 630 м
[Sc]
-2.9 -4.3 90 -6 -6 по сезону 1026.9 996.4
В 1-1
{2}
2700 м дымка 10/10 700 м
[Sc]
-2.8 -4.1 91 -4 -4 по сезону 1027.0 996.5
ЮВ 1
{3}
2700 м дымка 10/10 480 м
[Sc]
-2.6 -4.0 90 -5 -5 прохладно 1027.0 996.5 -5.1 -2.6 0.0
ЮВ 2-3
{4}
3600 м дымка 10/10 1320 м
[Sc]
-2.3 -3.9 89 -6 -6 по сезону 1026.6 996.1
ЮВ 3 4000 м слаб. снег 10/10 840 м
[Sc]
-1.8 -3.4 89 -6 -6 по сезону 1026.2 995.8 0.0
ЮВ 3-4
{4}
4000 м слаб. снег 10/10 800 м
[Sc]
-1.3 -2.6 91 -6 -6 холодно 1026.4 996.1 0.0 1
ЮВ 2-3
{3}
2500 м снег 10/10 750 м
[Sc]
-0.8 -1.9 92 -4 -4 по сезону 1026.7 996.4 0.0
ЮВ 2-3
{3}
4000 м в посл. час снег 10/10 800 м
[Sc]
-0.3 -1.1 94 -4 -4 по сезону 1026.0 995.8 0.0
ЮВ 2
{6}
3000 м слаб. снег {дождь} 10/10 480 м
[Sc]
+0.1 -0.8 94 -4 -4 холодно 1024.8 994.7 0.2 1
ЮВ 2 3000 м слаб. дождь 10/10 450 м
[Sc]
+0.7 0.0 95 -3 -3 прохладно 1023.6 993.6 0.4
ЮВ 3 3500 м в посл. час дождь 10/10 180 м
[Sc]
+1.0 +0.1 94 -3 -3 по сезону 1023.3 993.3 0.4
ЮВ 3
{7}
2500 м слаб. дождь со снегом 10/10 600 м +1.1 +0.4 95 -3 -3 прохладно 1023.1 993.1 1 0
ЮВ 2 2100 м слаб. дождь 10/10 150 м
[Sc]
+1.6 +1.0 96 -2 -2 по сезону 1022.8 992.9 1
ЮВ 3-4
{4}
1800 м дождь 10/10 630 м
[Sc]
+1.2 +0.8 97 -3 -3 по сезону 1022.3 992.4 1
ЮВ 3
{8}
2500 м дождь {снег} 10/10 700 м
[Sc]
+1.6 +1.2 97 -3 -3 прохладно 1022.0 992.1 -2.6 +1.6 3
ЮВ 3-3
{4}
3200 м слаб. дождь 10/10 630 м
[Sc]
+2.3 +1.7 96 -2 -2 по сезону 1021.8 992.0 0.8
ЮВ 3-3
{4}
2000 м слаб. дождь 10/10 570 м
[Sc]
+2.4 +2.0 97 -2 -2 по сезону 1021.9 992.1 2
ЮВ 3-4
{4}
2000 м дождь 10/10 570 м
[Sc]
+2.5 +2.2 98 -2 -2 по сезону 1021.6 991.8 4
ЮВ 3-4
{4}
2200 м дождь 10/10 630 м
[Sc]
+2.6 +2.3 98 -1 -1 по сезону 1021.5 991.8 2
ЮВ 2 1800 м слаб. дождь 10/10 270 м
[Sc]
+2.8 +2.5 98 -1 -1 тепло 1021.8 992.1 1
ЮВ 2
{6}
1500 м дождь 10/10 180 м
[Sc]
+3.0 +2.7 98 -0 -0 по сезону 1021.5 991.8 4
ЮВ 2-3
{3}
2000 м слаб. морось {дождь} 10/10 420 м
[Sc]
+2.9 +2.6 98 -1 -1 по сезону 1021.5 991.8 0.0
ЮВ 2 1500 м в посл. час морось 10/10 60 м
[Sc]
+2.8 +2.7 99 0 0 тепло 1021.7 992.0 0.0
ЮВ 2
{5}
1300 м слаб. морось {дождь} 10/10 30 м
[Sc]
+2.9 +2.8 99 -1 -1 по сезону 1021.9 992.2 0.0
ЮВ 2 2000 м слаб. дождь {морось} 10/10 240 м
[Sc]
+3.4 +3.3 99 0 0 по сезону 1022.2 992.5 0.8
ЮВ 2 3000 м слаб. дождь 10/10 450 м
[Sc]
+3.9 +3.8 99 +1 +1 тепло 1022.1 992.5 1
ЮВ 2
{5}
2500 м слаб. морось {дождь} 10/10 60 м
[Sc]
+4.0 +3.9 99 +1 +1 по сезону 1022.6 993.0 +1.6 +4.1 2 15.6
СЗ 1 1200 м слаб. дождь {морось} 10/10 60 м
[Sc]
+3.5 +3.4 99 +3 +3 тепло 1023.3 993.6 0.6
Ю 1 1300 м дымка {дождь} 10/10 90 м +3.3 +3.2 99 +3 +3 тепло 1023.8 994.1 0.4
С 1-1
{1}
1200 м дождь {морось} 10/9 90 м
[Frnb]
+3.4 +3.3 99 +3 +3 по сезону 1024.5 994.8 2
Ю 1 3500 м дождь 10/9 60 м
[Frnb]
+3.9 +3.8 99 +3 +4 тепло 1025.1 995.4 0.4
Ю 1 3500 м слаб. дождь 10/10 60 м
[Sc]
+4.4 +4.3 99 +4 +4 тепло 1025.1 995.5 0.8
штиль 0
{3}
4000 м слаб. дождь {морось} 10/10 60 м
[Sc]
+5.0 +4.9 99 +4 +4 по сезону 1024.9 995.3 2
ЮВ 1 5000 м слаб. дождь 10/10 90 м
[Sc]
+5.2 +5.1 99 +5 +5 тепло 1024.4 994.9 0.4
Ю 1 4500 м слаб. дождь 10/10 150 м
[Sc]
+5.5 +5.2 98 +5 +5 тепло 1024.2 994.7 0.6
Ю 1
{3}
3500 м слаб. дождь 10/10 60 м
[Sc]
+5.6 +5.3 98 +5 +5 по сезону 1024.2 994.7 1
Ю 1 2200 м слаб. дождь 10/10 90 м
[Sc]
+5.4 +5.1 98 +4 +4 тепло 1024.1 994.6 0.6
Ю 1 2500 м дождь 10/10 90 м
[Sc]
+5.5 +5.4 99 +4 +4 тепло 1024.1 994.6 1
ЮВ 2
{6}
2700 м дождь 10/10 120 м
[Sc]
+5.4 +5.3 99 +3 +3 по сезону 1024.1 994.6 +3.1 +5.7 2
ЮВ 2 2700 м слаб. дождь {морось} 10/10 360 м
[Sc]
+5.6 +5.3 98 +3 +3 тепло 1024.2 994.7 0.2
ЮВ 2 1600 м слаб. дождь 10/10 360 м
[Sc]
+5.4 +5.1 98 +3 +3 тепло 1024.5 995.0 1
ЮВ 2
{5}
2200 м слаб. дождь {морось} 10/10 180 м
[Sc]
+5.2 +5.1 99 +2 +2 по сезону 1024.7 995.2 2
СЗ 1 7000 м в посл. час дождь 10/10 180 м
[Sc]
+5.2 +5.1 99 +5 +5 тепло 1025.4 995.8 0.0
С 2-3
{4}
10 км слаб. дождь 10/10 1000 м
[Sc]
+5.8 +5.2 96 +4 +4 тепло 1025.3 995.8 0.2
ЮВ 2-2
{3}
10 км в посл. час дождь {морось} 10/10 930 м
[Sc]
+5.2 +4.5 95 +3 +3 по сезону 1025.2 995.6 0.2
ЮВ 2-2
{3}
10 км слаб. дождь 10/10 840 м
[Sc]
+5.6 +4.9 95 +3 +3 тепло 1024.9 995.4 0.0
ЮВ 2 3300 м слаб. дождь 10/10 400 м
[Sc]
+5.3 +4.9 97 +3 +3 тепло 1025.3 995.7 0.4
Ю 2
{7}
7000 м в посл. час дождь 10/10 330 м
[Sc]
+5.6 +5.3 98 +3 +3 по сезону 1024.8 995.3 0.6
ЮЗ 1-2
{3}
40 км 10/9 1000 м
[Sc]
+5.6 +4.9 95 +4 +4 тепло 1024.3 994.8
З 1-2
{3}
40 км 10/9 1300 м
[Sc]
+5.8 +4.1 89 +5 +5 тепло 1024.0 994.5
СЗ 2
{6}
30 км {дождь} 10/9 900 м
[Sc]
+5.6 +3.8 88 +3 +3 тепло 1023.9 994.4 +5.0 +5.9 10.0
З 2-2
{3}
30 км 9/9 750 м
[Sc]
+6.0 +3.8 86 +4 +4 тепло 1023.3 993.9
ЮЗ 1 40 км 9/9 840 м
[Sc]
+6.3 +3.6 83 +5 +5 тепло 1023.5 994.1 0.0
З 1
{6}
40 км 9/9 870 м
[Sc]
+6.8 +3.8 81 +6 +6 тепло 1023.2 993.9 0.0
ЮЗ 1-2
{2}
40 км 9/9 900 м
[Sc]
+7.3 +3.9 79 +8 +8 тепло 1023.1 993.8 0.0
ЮВ 2-2
{2}
40 км 10/10 800 м
[Sc]
+7.1 +4.4 83 +5 +5 тепло 1022.8 993.5
ЮВ 2-2
{2}
40 км 10/10 750 м
[Sc]
+7.1 +4.9 86 +5 +5 по сезону 1021.9 992.6 0.0
ЮВ 2-3
{3}
40 км 10/10 800 м
[Sc]
+7.5 +5.0 84 +5 +5 тепло 1020.6 991.4
ЮВ 3
{6}
40 км 10/10 800 м
[Sc]
+7.3 +4.8 84 +4 +4 тепло 1020.4 991.2
ЮВ 2-2
{3}
40 км 10/10 840 м
[Sc]
+6.8 +4.9 88 +5 +5 по сезону 1020.5 991.2
ЮВ 2 18 км слаб. дождь 10/10 1000 м
[Sc]
+6.2 +5.2 93 +4 +4 тепло 1019.9 990.6 0.2
ЮВ 3 15 км слаб. дождь 10/6 1020 м
[Sc Ac As]
+6.2 +5.0 92 +3 +3 тепло 1018.9 989.6 0.2
ЮВ 2
{8}
12 км слаб. дождь 10/9 1000 м
[Sc]
+6.1 +5.2 94 +3 +3 по сезону 1018.3 989.0 +5.6 +7.5 0.4
Ю 2-2
{3}
6000 м слаб. дождь 10/10 1000 м
[Sc]
+6.1 +5.4 95 +4 +4 тепло 1018.1 988.8 0.4
Ю 2 8000 м слаб. дождь 10/10 900 м
[Sc]
+6.4 +5.5 94 +4 +4 тепло 1017.2 988.0 2
Ю 2
{6}
12 км в посл. час дождь 10/10 700 м
[Sc]
+6.3 +5.6 95 +4 +4 по сезону 1017.0 987.8 3
ЮЗ 2 15 км слаб. дождь 10/10 840 м
[Sc]
+6.5 +5.3 92 +4 +4 тепло 1016.9 987.7 0.2
З 2 2700 м дождь 10/9 540 м
[Sc]
+6.2 +5.3 94 +4 +4 тепло 1017.4 988.2 1
ЮЗ 3
{6}
50 км в посл. час дождь 10/10 800 м
[Sc]
+6.5 +5.8 95 +4 +4 тепло 1016.9 987.7 3
З 2 50 км 9/4 750 м
[Sc Ac As]
+6.7 +5.6 93 +5 +5 тепло 1017.1 987.9
З 3 50 км 10/9 840 м
[Sc]
+6.9 +5.5 91 +4 +4 тепло 1017.5 988.3
З 2
{7}
50 км 10/9 840 м
[Sc]
+7.1 +5.1 87 +5 +5 тепло 1017.7 988.6
З 3 50 км 10/10 900 м
[Sc]
+7.2 +4.3 82 +5 +5 тепло 1017.8 988.7
З 3 50 км 10/10 700 м
[Sc]
+7.1 +4.1 81 +4 +4 тепло 1018.1 988.9
СЗ 4
{7}
6000 м слаб. дождь 10/10 630 м
[Sc]
+6.0 +4.0 87 +3 +3 тепло 1018.9 989.6 +6.0 +7.2 0.4 6.2
С 2 10 км слаб. дождь 10/10 600 м
[Sc]
+4.6 +2.9 89 +2 +2 тепло 1020.0 990.5 0.6
СЗ 1 10 км слаб. дождь 10/10 360 м
[Sc]
+4.2 +3.2 93 +3 +3 тепло 1020.4 990.9 1
СЗ 3-3
{3}
9000 м слаб. дождь 10/10 360 м
[Sc]
+4.0 +3.0 93 +2 +2 по сезону 1021.6 992.0 2
С 4 12 км слаб. дождь 10/10 240 м
[Sc]
+2.5 +1.5 93 -2 -2 по сезону 1022.9 993.1 0.4
СЗ 3 12 км дождь 10/10 210 м
[Sc]
+2.6 +1.9 95 -1 -1 тепло 1023.4 993.6 0.0
СЗ 3
{7}
25 км в посл. час дождь {морось} 10/10 210 м
[Sc]
+2.7 +1.7 93 -1 -1 прохладно 1023.3 993.5 0.4
СЗ 2 20 км 10/10 330 м
[Sc]
+2.9 +1.7 92 -0 -0 по сезону 1023.1 993.3 0.2
СЗ 3 20 км слаб. дождь со снегом 10/10 480 м
[Sc]
+3.0 +0.6 84 -1 -1 по сезону 1023.4 993.6 0.0
С 3
{11}
2400 м слаб. снег {дождь} 10/10 90 м
[St]
+0.9 0.0 94 -3 -3 прохладно 1024.3 994.3 0.2
С 3-4
{4}
8000 м слаб. снег 10/10 240 м
[Frnb]
+1.2 +0.3 94 -3 -3 по сезону 1024.9 994.9 0.2
С 3-5
{5}
20 км в посл. час дождь со снегом 10/10 240 м
[Frnb]
+1.3 +0.1 92 -3 -3 по сезону 1025.4 995.4 0.2
С 4
{10}
15 км {снег, дождь} 10/10 240 м
[Frnb]
+1.1 -0.2 91 -4 -4 холодно 1026.0 996.0 +0.9 +6.0 0.4
С 4-6
{6}
15 км 10/10 270 м
[St]
+1.0 -0.3 91 -4 -4 по сезону 1026.5 996.4
С 4 11 км 10/10 240 м
[Sc]
+0.7 -0.6 91 -5 -5 по сезону 1026.7 996.6
С 5-6
{6}
10 км 10/10 240 м
[St]
+0.6 -0.7 91 -5 -5 холодно 1027.3 997.2
С 4-6
{6}
11 км 10/10 270 м
[St]
+0.5 -1.0 90 -5 -5 по сезону 1027.9 997.7
С 5-6
{6}
15 км 10/10 400 м
[St]
+0.5 -1.6 86 -5 -5 по сезону 1028.3 998.1
С 4-6
{6}
15 км 10/10 400 м
[St]
+0.3 -1.9 85 -5 -5 прохладно 1028.8 998.6
С 4-5
{5}
15 км 10/10 400 м
[St]
0.0 -2.4 84 -6 -6 по сезону 1029.0 998.7
С 4-5
{5}
20 км 10/10 480 м
[St]
0.0 -2.5 83 -5 -5 по сезону 1029.5 999.2
С 3-4
{4}
15 км 10/10 420 м
[Sc]
-0.1 -2.6 83 -5 -5 прохладно 1029.6 999.3
С 3-5
{5}
17 км 10/10 420 м
[Sc]
-0.3 -2.5 85 -5 -5 по сезону 1029.7 999.4
С 2-3
{4}
13 км 10/10 400 м -0.4 -2.5 86 -4 -4 по сезону 1029.8 999.5
С 3
{7}
18 км 10/9 600 м
[Sc]
-0.4 -2.8 84 -5 -5 прохладно 1029.8 999.5 -0.4 +1.1 3.4
С 3-5
{5}
25 км 9/9 500 м
[Sc]
-0.7 -3.6 81 -6 -6 по сезону 1030.1 999.7
С 2-3
{5}
25 км 10/9 840 м
[Sc]
-0.7 -3.2 83 -4 -4 по сезону 1030.0 999.6
С 2
{6}
20 км 10/9 480 м
[Sc]
-0.6 -3.6 80 -4 -4 прохладно 1030.2 999.8
С 2 30 км 10/9 540 м
[Sc]
-0.3 -4.0 76 -4 -4 по сезону 1030.1 999.8
СЗ 3-4
{4}
40 км 10/9 630 м
[Sc]
-0.1 -4.2 74 -4 -4 по сезону 1029.9 999.6
С 2-3
{4}
40 км 10/9 600 м
[Sc]
-0.1 -4.4 73 -4 -3 холодно 1029.1 998.8
С 2-3
{3}
40 км 10/9 600 м
[Sc]
+0.1 -4.2 73 -3 -2 по сезону 1028.9 998.6
СЗ 2-3
{3}
40 км 10/9 630 м
[Sc]
+0.1 -4.5 71 -3 -2 по сезону 1028.5 998.3
СВ 2
{4}
40 км 10/3 630 м
[Sc Ac As Ci sp]
+0.3 -4.2 72 -2 -2 прохладно 1028.1 997.9
СВ 1 30 км 10/0
[Ac As Ci sp]
+0.1 -4.2 73 -2 -2 по сезону 1028.2 998.0
В 1 25 км 10/0
[Ac As Ci sp]
-0.1 -4.0 75 -0 -0 тепло 1028.3 998.0
ЮВ 1
{3}
17 км слаб. снег 10/9 800 м
[Sc]
-0.1 -3.8 76 -2 -2 прохладно 1027.6 997.4 -0.7 +0.4 0.0
Ю 1 1500 м снег 10/9 480 м
[Sc]
-0.9 -2.2 91 -2 -2 по сезону 1027.6 997.3 0.2
ЮВ 1-2
{2}
900 м снег 10/9 300 м
[Sc]
-1.1 -1.8 95 -3 -3 по сезону 1027.1 996.8 0.4
ЮВ 1
{5}
1000 м снег 10/9 400 м
[Sc]
-1.1 -1.5 97 -3 -3 прохладно 1025.9 995.6 1 4
ЮВ 2 1500 м снег 10/9 90 м
[Sc]
-0.9 -1.3 97 -4 -4 по сезону 1024.9 994.7 0.4
ЮВ 1-2
{3}
900 м снег 10/10 420 м
[Sc]
-1.0 -1.4 97 -3 -3 по сезону 1024.5 994.3 0.6
ЮВ 2-3
{3}
1300 м слаб. снег 10/10 540 м
[Sc]
-0.9 -1.2 98 -4 -4 прохладно 1023.7 993.5 2 8
ЮВ 1 1500 м слаб. снег 10/10 240 м
[Sc]
-0.8 -1.1 98 -2 -2 по сезону 1023.2 993.0 1
Ю 1 2500 м слаб. снег 10/10 120 м
[Frnb]
-0.2 -0.5 98 -1 -1 тепло 1022.6 992.5 1
Ю 1
{3}
2000 м слаб. дождь со снегом 10/10 90 м
[Frnb]
0.0 -0.3 98 -1 -1 по сезону 1022.9 992.8 4 9
ЮВ 1 2300 м слаб. морось {дождь} 10/10 90 м
[Frnb]
-0.1 -0.4 98 -2 -2 по сезону 1022.5 992.4 1
Ю 1 2000 м слаб. морось 10/9 60 м
[Frnb]
+0.2 -0.1 98 -1 -1 тепло 1022.6 992.6 0.8
ЮВ 1
{2}
3000 м слаб. морось {дождь} 10/9 90 м
[Sc]
+0.3 0.0 98 -1 -1 по сезону 1023.0 993.0 -1.2 +0.3 3 9.0 8
ЮВ 1-1
{1}
3000 м слаб. морось 10/10 480 м
[Sc]
+0.4 +0.1 98 -0 -0 тепло 1023.2 993.2 0.4
Ю 1 4000 м в посл. час морось 10/10 840 м
[Sc]
+0.6 +0.3 98 -2 -2 тепло 1023.5 993.5 0.2
ЮВ 1
{4}
5000 м дымка 10/10 480 м
[Sc]
+1.0 +0.7 98 0 0 по сезону 1023.9 993.9 0.6 7
ЮВ 1 4000 м дымка 10/10 840 м
[Sc]
+1.2 +0.8 97 +1 +1 по сезону 1024.8 994.8 0.0
Ю 1 5000 м дымка 10/10 750 м
[Sc]
+1.8 +1.2 96 -0 -0 тепло 1024.5 994.6
ЮВ 1-2
{2}
6000 м {морось} 9/9 720 м
[Sc]
+2.4 +1.4 93 +1 +1 по сезону 1024.4 994.5 5
З 1 6000 м 10/10 450 м
[Sc]
+2.4 +1.2 92 +2 +2 по сезону 1024.0 994.2 0.2
С 1 6000 м 9/9 700 м
[Sc]
+3.2 +2.2 93 +3 +3 тепло 1024.4 994.6 0.0
СЗ 2-3
{3}
7000 м 9/9 1080 м
[Sc]
+3.2 +1.6 89 +1 +1 по сезону 1025.2 995.4 0.2 3
С 3 18 км 9/9 630 м
[Cu Sc]
+3.8 +1.0 82 0 0 по сезону 1025.8 996.1
СВ 1 20 км 9/6 240 м
[Cu Sc Ac trans]
+2.3 +1.3 93 0 0 тепло 1027.2 997.3 0.0
С 2
{6}
6000 м слаб. ливневой дождь 9/9 300 м
[Cu Sc]
+2.0 +1.3 95 -2 -2 по сезону 1028.4 998.4 +0.3 +4.7 0.2 2
ЮВ 1 12 км в посл. час ливневой дождь 9/9 270 м
[Sc]
+1.8 +1.2 96 +1 +1 по сезону 1029.1 999.0 0.0
СЗ 1 9000 м 9/9 500 м
[Sc]
+1.6 +1.2 97 +1 +1 тепло 1029.2 999.1
СЗ 2
{6}
9000 м {ливн. снег, дождь} 9/9 500 м
[Sc]
+1.5 +1.1 97 -2 -2 по сезону 1029.3 999.2 0.0 2
СЗ 2 9000 м 9/9 570 м
[Sc]
+1.2 +0.8 97 -3 -3 по сезону 1029.1 999.0
С 2-2
{2}
3000 м дымка 3/3 540 м
[Sc]
+0.8 +0.4 97 -2 -2 тепло 1029.4 999.2
СЗ 1-3
{3}
3000 м дымка {ливн. снег, дождь} н/о +0.4 0.0 97 -2 -2 по сезону 1029.9 999.7
С 1-2
{2}
300 м туман местами 1/1
[Sc]
-0.1 -0.5 97 -2 -2 по сезону 1029.4 999.1
С 1-1
{1}
300 м туман местами 9/9
[Sc]
-0.5 -0.9 97 -1 -1 тепло 1029.9 999.6
СЗ 1-1
{1}
7000 м {туман} 9/9 1500 м
[Sc]
+0.3 0.0 98 -1 -1 по сезону 1029.8 999.6 2
ЮВ 1-1
{1}
7000 м 9/9 1500 м
[Sc]
+0.7 +0.4 98 0 0 тепло 1029.7 999.5
ЮВ 1-1
{1}
7000 м 9/9 1500 м
[Sc]
+0.5 +0.2 98 -0 -0 тепло 1029.5 999.3
В 1
{1}
6000 м {туман} 9/9 750 м
[Sc]
+0.5 +0.2 98 -0 -0 по сезону 1030.0 999.8 -0.6 +2.0 1.0 2
В 1 7000 м 9/9 600 м
[Sc]
+0.4 +0.1 98 -0 -0 тепло 1030.3 1000.1
ЮВ 1 2800 м дымка 9/9 450 м
[Sc]
+0.6 +0.3 98 -2 -2 тепло 1030.6 1000.4
ЮВ 1 1400 м дымка 9/9 60 м
[Sc]
+0.9 +0.6 98 -1 -1 по сезону 1030.8 1000.6 2
Местоположение метеостанции Лион (Франция): широта 45.73 долгота 5.08 высота над уровнем моря 240 м.
В архиве по умолчанию представлена погода в Лионе за последнюю неделю. Архивные данные за месяц целиком и за предыдущие месяцы, начиная с января 2011 года, Вы можете получить, выбрав интересующий диапазон дат из раскрывающегося списка и нажав кнопку "Найти!".
*Определитесь, кто Вы:
Внимание! Время в таблицах - всемирное. Для получения местного времени необходимо прибавить поправку, которая равна 1 ч.
Смотрите также архив погоды в соседних городах и на ближайших метеорологических станциях:
Партнеры нашего сайта:      
Пояснения к столбцам:
  • Ветер - указаны скорость ветра в м/с - средняя за 10 мин, порывы в срок и между сроками (в фигурных скобках) и направление, откуда дует ветер: С - северный,
  • СВ - северо-восточный, В - восточный, ЮВ - юго-восточный, Ю - южный, ЮЗ - юго-западный, З - западный, СЗ - северо-западный.
  • Видимость - горизонтальная дальность видимости в метрах или километрах. При видимости от 1 до 10 км при отсутствии осадков обычно наблюдается дымка, при ухудшении видимости до 1 км и менее - туман. В сухую погоду видимость может ухудшаться дымом, пылью или мглою.
  • Явления - указаны атмосферные явления, наблюдавшиеся в срок или в последний час перед сроком; фигурными скобками обозначены явления, наблюдавшиеся между сроками (за 1-3 часа до срока); квадратными скобками обозначены град или гололедные отложения с указанием их диаметра в мм.
  • Облачность - указаны через наклонную черту общая и нижняя облачность в баллах и высота нижней границы облаков в метрах; квадратными скобками обозначены формы облаков: Ci - перистые, Cs - перисто-слоистые, Cc - перисто-кучевые, Ac - высококучевые, As - высокослоистые, Sc - слоисто-кучевые, Ns - слоисто-дождевые, Cu - кучевые, Cb - кучево-дождевые. Подробнее классификацию облаков см. в Атласе облаков (PDF).
  • T - Температура воздуха - температура, измеренная на высоте 2 м над землей.
  • Td - Температура точки росы - температура, при понижении до которой содержащийся в воздухе водяной пар достигнет насыщения.
  • f - Относительная влажность воздуха - влажноcть воздуха, измеренная на высоте 2 м над землей.
  • Te - Эффективная температура - температура, которую ощущает одетый по сезону человек в тени. Характеристика душности погоды. При расчете учитывается влияние влажности воздуха и скорости ветра на теплоощущения человека.
  • Tes - Эффективная температура на солнце - температура, которую ощущает человек, с поправкой на солнечный нагрев. Характеристика знойности погоды. Зависит от высоты солнца над горизонтом, облачности и скорости ветра. Ночью, в пасмурную погоду, а также при ветре 12 м/с и более поправка равна нулю.
  • P - Атмосферное давление - приведенное к уровню моря атмосферное давление.
  • Po - Атмосферное давление - измеренное на уровне метеостанции атмосферное давление.
  • Tmin - Минимальная температура - минимум температуры воздуха на высоте 2 м над землей.
  • Tmax - Максимальная температура - максимум температуры воздуха на высоте 2 м над землей.
  • R - Количество осадков - Количество выпавших осадков за период времени, мм. При наведении курсора мыши на число - период времени, за который выпало указанное количество осадков.
  • R24 - Количество осадков - Количество выпавших осадков за 24 часа, мм.
  • S - Снежный покров - Высота снежного покрова, см. При наведении курсора мыши на число - состояние снежного покрова и степень покрытия местности в баллах.